Regional Weather Roundup
Issued by NWS Charleston, SC

Home | Current Version | Previous Version | Text Only | Print | Product List | Glossary On
Versions: 1 2 3 4 5 6 7 8 9 10 11 12 13 14 15 16 17 18 19 20 21 22 23 24 25 26 27 28 29 30 31 32 33 34 35 36 37 38 39 40 41 42 43 44 45 46 47 48 49 50
000
ASUS42 KCHS 300227
RWRCHS

REGIONAL WEATHER ROUNDUP
NATIONAL WEATHER SERVICE CHARLESTON SC
1000 PM EDT WED MAR 29 2017

NOTE: "FAIR" INDICATES FEW OR NO CLOUDS BELOW 12,000 FEET WITH NO
SIGNIFICANT WEATHER AND/OR OBSTRUCTIONS TO VISIBILITY.

NOT ALL STATIONS ARE QUALITY CONTROLLED. USE DATA WITH CAUTION...
ESPECIALLY DEWPOINT OBSERVATIONS.

SCZ027-030-031-034>040-042>050-300300-
...SOUTHEAST SOUTH CAROLINA...

CITY           SKY/WX    TMP DP  RH WIND       PRES   REMARKS
N CHARLESTON   MOCLDY    67  63  87 E12       30.05R
WATERFRONT PRK   N/A     66  65  96 E13       30.03S
JOHNS ISLAND   MOCLDY    66  64  94 E10       30.06R
PINOPOLIS        N/A     66  63  88 E7G14     29.96R
MONCKS CORNER  CLOUDY    64  61  88 E9        30.07R
SUMMERVILLE    CLOUDY    68  63  83 E6        30.06R
BEAUFORT MCAS  PTCLDY    67  65  93 E8        30.04R
BEAUFORT ARPT  FAIR      64  63  94 E5        30.04R
HILTON HEAD IS CLEAR     64  64 100 CALM      30.05R
WALTERBORO     MOCLDY    64  61  88 SE7       30.06R
ALLENDALE      FAIR      70  57  64 CALM      30.01R

...SOUTHERN MIDLANDS AND PEE DEE...

CITY           SKY/WX    TMP DP  RH WIND       PRES   REMARKS
GEORGETOWN     CLOUDY    63  59  88 E8        30.10R
KINGSTREE      FAIR      61  54  77 E8        30.09R
ORANGEBURG     CLEAR     66  52  60 S7        30.03R
BARNWELL       FAIR      68  55  64 NE6       30.02R
AIKEN          FAIR      61  52  72 NE3       30.06R
MANNING        FAIR      63  59  88 SE5       30.07R
COLUMBIA       CLEAR     70  52  52 CALM      30.01R
SUMTER         CLEAR     69  58  66 E13       30.03R
FLORENCE       CLEAR     65  57  75 SE9       30.08R
MYRTLE BEACH   MOCLDY    63  57  82 E12       30.11R
N MYRTLE BEACH CLEAR     63  57  81 E10       30.09S

$$

GAZ063-065-086>088-099>101-113>116-118-119-134>141-150-300300-
...SOUTHEAST GEORGIA...

CITY           SKY/WX    TMP DP  RH WIND       PRES   REMARKS
SAVANNAH ARPT  PTCLDY    68  57  68 SE6       30.03R
HUNTER AAF     CLEAR     66  64  94 CALM      30.00R
FORT STEWART   PTCLDY    68  58  70 CALM      30.00R
STATESBORO     CLEAR     70  62  73 CALM      30.02R
SYLVANIA       PTCLDY   N/A N/A N/A CALM      30.03R
CLAXTON        FAIR     N/A N/A N/A CALM      30.02R

...CSRA...CENTRAL AND FAR SOUTHEAST GEORGIA...

CITY           SKY/WX    TMP DP  RH WIND       PRES   REMARKS
THOMSON        CLEAR     65  55  71 CALM      30.06R
AUGUSTA-BUSH   PTCLDY    66  57  72 CALM      29.99R
AUGUSTA-DANIEL CLEAR     76  51  41 SE3       30.01R
SWAINSBORO     FAIR      72  57  60 CALM      30.02R
VIDALIA        PTCLDY    75  61  60 SE6       30.01R
EASTMAN        LGT RAIN  74  56  54 CALM      30.03R
HAZLEHURST     FAIR      71  71 100 CALM      29.99S
ALMA           CLOUDY    73  64  73 SE3       30.00R
WAYCROSS       CLOUDY    76  72  86 SE8       30.01R
JESUP          CLOUDY    72  61  68 SW3       30.04R
BAXLEY         CLOUDY    75  70  83 S5        30.01R
BRUNSWICK      CLOUDY    68  66  94 CALM      30.03S
SAINT SIMONS   CLEAR     69  65  86 SE5       30.02R

$$

SCZ027-028-034-036>038-045-046-048>050-GAZ119-141-300300-
...LAKE AND SUPPLEMENTAL COASTAL OBSERVATIONS...

STATION/POSITION TIME  TEMP    WIND        PRES    WAVE   SWELL
                       AIR SEA DIR/SP/G            HT/PER HT/PER/DIR
                 (UTC) (F)     (DEG/KT/KT) (MB)    (FT/S) (FT/S/D)
WINYAH BAY       NOT AVBL
LAKE MURRAY      0120   69        CALM     1015.9R
ACE BASIN NERRS  0045   66     100/  1     1017.0
FORT PULASKI     0200   65 66  100/  4/  5 1017.2
SAPELO ISLAND    0100   68        CALM     1016.0

$$

ANZ835-935-AMZ111-154-330-350-352-354-370-450-454-472-300300-
...C-MAN AND BUOY OBSERVATIONS...

STATION/POSITION TIME  TEMP    WIND        PRES    WAVE   SWELL
                       AIR SEA DIR/SP/G            HT/PER HT/PER/DIR
                 (UTC) (F)     (DEG/KT/KT) (MB)    (FT/S) (FT/S/D)
BUOY 41004       0050   71 68   80/ 10/ 12 1016.8    4/10   3/100/10
BUOY 41008       0050   66 66  120/  8/ 10 1015.8    3/10   3/140/10
FOLLY BEACH CMAN 0100   64      60/ 10/ 11 1017.9R
CAPERS NEARSHORE NOT AVBL
FRIPP NEARSHORE  0208   64 63   80/  6/  8 1016.8R


STATION/POSITION TIME  TEMP    WIND        PRES    WAVE   SWELL
                       AIR SEA DIR/SP/G            HT/PER HT/PER/DIR
                 (UTC) (F)     (DEG/KT/KT) (MB)    (FT/S) (FT/S/D)
5E ST. MARYS GA  0200      69                N/A     3/10   2/120/11
FRYING PAN BUOY  0120   68 74   60/ 17/ 21 1018.8
BUOY 41025       0150   59 74   40/ 19/ 23 1020.5R   7/ 8   3/100/17
CAPE LOOKOUT NC  0100   60      50/ 18/ 20 1020.0R
BUOY 41002       0050   70 72   50/ 17/ 19 1016.6    5/10   5/110/10
BUOY 41010       NOT AVBL
ST AUGUSTINE FL  0100   71 71  170/  9/ 10 1017.0R


$$



USA.gov is the U.S. government's official web portal to all federal, state and local government web resources and services.